Location: Unspecified
(0.0000°N, 0.0000°E)
Time: 07:06:23
(UTC+02:00)

Ariane H10+ - Visible Passes

Search period start: 28 August 2014 00:00
Search period end: 07 September 2014 00:00
Orbit: 294 x 31880 km, 7.1° (Epoch: 27 August)

Date Brightness Start Highest point End Pass type
(mag) Time Alt. Az. Time Alt. Az. Time Alt. Az.
28 Aug 6.0 05:27:15 57° WNW 05:31:06 73° N 13:54:21 10° E visible
30 Aug 6.6 06:04:28 10° E 03:59:47 48° ENE 12:06:32 10° E visible
30 Aug 4.7 22:04:13 10° WSW 22:12:52 39° SW 22:12:52 39° SW visible
01 Sep 7.8 02:32:08 12° E 02:32:08 12° E 02:33:37 10° E visible
01 Sep 5.2 12:32:33 10° W 20:40:30 59° S 18:03:53 10° W visible
02 Sep 6.8 06:27:27 26° WNW 13:10:30 77° E 15:02:57 10° E visible
04 Sep 6.1 04:59:29 69° NNW 05:00:57 72° N 13:23:09 10° E visible
06 Sep 7.0 06:24:38 10° E 03:31:20 37° ENE 11:31:09 10° E visible
06 Sep 3.9 21:31:05 10° W 21:43:33 51° S 21:43:46 51° S visible
